Weather History for VIAR - February, 2014

Change the Weather History Date:

Tuesday, February 25, 2014

  Actual Average (WUND) Record (WUND)
Temperature  
Mean Temperature 58 °F -  
Max Temperature 74 °F - - (-1)
Min Temperature 42 °F - - (-1)
Degree Days  
Heating Degree Days 7    
Growing Degree Days 8 (Base 50)    
Moisture  
Dew Point 48 °F    
Average Humidity 68    
Maximum Humidity 100    
Minimum Humidity 30    
Precipitation  
Precipitation 0.00 in - - ()
Sea Level Pressure  
Sea Level Pressure 30.05 in    
Wind  
Wind Speed 1 mph ()    
Max Wind Speed 6 mph    
Max Gust Speed -    
Visibility 2.1 miles    
Events      
Averages and records for this station are not official NWS values.
T = Trace of Precipitation, MM = Missing Value Source: Averaged Metar Reports

Daily Weather History Graph

Daily Weather History Graph

Search for Another Location

Airport or City:

Trip Planner

Search our weather history database for the weather conditions in past years. The results will help you decide how hot, cold, wet, or windy it might be!

Date:

Astronomy

Feb. 25, 2014 Rise Set
Actual Time 7:02 AM IST 6:25 PM IST
Civil Twilight 6:38 AM IST 6:49 PM IST
Nautical Twilight 6:09 AM IST 7:18 PM IST
Astronomical Twilight 5:41 AM IST 7:46 PM IST
Moon 3:21 AM IST (2/25) 2:11 PM IST (2/25)
Length of Visible Light 12h 11m
Length of Day
11h 22m
Waning Crescent, 22% of the Moon is Illuminated
Feb 25
Waning Crescent
Mar 1
New
Mar 8
First Quarter
Mar 16
Full
Mar 24
Last Quarter

Hourly Weather History & Observations

Time (IST) Temp. Dew Point Humidity Pressure Visibility Wind Dir Wind Speed Gust Speed Precip Events Conditions
12:00 AM 53.6 °F 50.0 °F 88% 30.06 in 2.2 mi Calm Calm - N/A   Scattered Clouds
12:30 AM 53.6 °F 50.0 °F 88% 30.06 in 2.2 mi Calm Calm - N/A   Scattered Clouds
1:30 AM 55.4 °F 48.2 °F 77% 30.06 in 2.2 mi Calm Calm - N/A   Scattered Clouds
2:00 AM 51.8 °F 48.2 °F 88% 30.04 in 2.2 mi Calm Calm - N/A   Scattered Clouds
2:30 AM 52 °F 47 °F 79% 30.06 in 1 mi Calm Calm - -   Mist
2:30 AM 51.8 °F 48.2 °F 88% 30.04 in 2.2 mi Calm Calm - N/A   Scattered Clouds
3:00 AM 50.0 °F 46.4 °F 87% 30.04 in 2.2 mi Variable 2.3 mph - N/A   Scattered Clouds
3:30 AM 51.8 °F 48.2 °F 88% 30.04 in 2.2 mi Calm Calm - N/A   Scattered Clouds
4:30 AM 48.2 °F 46.4 °F 93% 30.04 in 1.9 mi Calm Calm - N/A   Scattered Clouds
5:00 AM 48.2 °F 44.6 °F 87% 30.04 in 1.9 mi Calm Calm - N/A   Scattered Clouds
5:30 AM 47 °F 45 °F 92% 30.05 in 1 mi Calm Calm - -   Mist
5:30 AM 46.4 °F 44.6 °F 93% 30.04 in 1.9 mi Calm Calm - N/A   Scattered Clouds
6:00 AM 44.6 °F 44.6 °F 100% 30.04 in 1.9 mi Calm Calm - N/A   Scattered Clouds
6:30 AM 46.4 °F 44.6 °F 93% 30.04 in 1.9 mi Calm Calm - N/A   Scattered Clouds
7:00 AM 46.4 °F 44.6 °F 93% 30.04 in 1.0 mi Calm Calm - N/A   Scattered Clouds
8:00 AM 48.2 °F 46.4 °F 93% 30.06 in 0.7 mi Calm Calm - N/A   Mist
8:30 AM 53 °F 51 °F 89% 30.09 in 1 mi Calm Calm - -   Mist
8:30 AM 51.8 °F 50.0 °F 94% 30.06 in 0.9 mi Calm Calm - N/A   Mist
10:00 AM 64.4 °F 48.2 °F 56% 30.09 in 1.9 mi Calm Calm - N/A   Mist
10:30 AM 68.0 °F 48.2 °F 49% 30.09 in 1.9 mi Calm Calm - N/A   Mist
11:00 AM 68.0 °F 48.2 °F 49% 30.09 in 2.5 mi Calm Calm - N/A   Haze
11:30 AM 69 °F 49 °F 39% 30.10 in 1 mi 2.3 mph - -   Haze
11:30 AM 69.8 °F 50.0 °F 49% 30.09 in 2.5 mi Variable 2.3 mph - N/A   Haze
12:00 PM 69.8 °F 48.2 °F 46% 30.09 in 2.5 mi Variable 3.5 mph - N/A   Haze
12:30 PM 69.8 °F 46.4 °F 43% 30.09 in 2.5 mi Variable 3.5 mph - N/A   Haze
1:00 PM 71.6 °F 48.2 °F 43% 30.09 in 2.5 mi Variable 2.3 mph - N/A   Haze
1:30 PM 71.6 °F 46.4 °F 41% 30.06 in 2.5 mi Variable 2.3 mph - N/A   Haze
2:00 PM 71.6 °F 46.4 °F 41% 30.06 in 2.5 mi SW 5.8 mph - N/A   Haze
2:30 PM 71 °F 47 °F 30% 30.03 in 2 mi WSW 3.5 mph - -   Haze
2:30 PM 71.6 °F 46.4 °F 41% 30.04 in 2.5 mi WSW 3.5 mph - N/A   Haze
3:00 PM 71.6 °F 46.4 °F 41% 30.04 in 2.5 mi Variable 2.3 mph - N/A   Haze
3:30 PM 71.6 °F 46.4 °F 41% 30.04 in 2.8 mi Variable 3.5 mph - N/A   Haze
4:00 PM 71.6 °F 46.4 °F 41% 30.01 in 2.8 mi South 3.5 mph - N/A   Haze
5:00 PM 71.6 °F 48.2 °F 43% 30.01 in 3.1 mi Variable 2.3 mph - N/A   Haze
5:30 PM 69 °F 51 °F 42% 29.99 in 2 mi South 5.8 mph - -   Haze
5:30 PM 69.8 °F 50.0 °F 49% 30.01 in 3.1 mi South 5.8 mph - N/A   Haze
6:00 PM 68.0 °F 50.0 °F 52% 30.01 in 3.1 mi Calm Calm - N/A   Haze
7:00 PM 62.6 °F 50.0 °F 63% 30.01 in 3.1 mi Calm Calm - N/A   Haze
7:30 PM 60.8 °F 50.0 °F 68% 30.04 in 2.5 mi Calm Calm - N/A   Haze
8:00 PM 59.0 °F 50.0 °F 72% 30.04 in 2.5 mi Calm Calm - N/A   Haze
8:30 PM 60 °F 48 °F 55% 30.04 in 2 mi Calm Calm - -   Haze
8:30 PM 60.8 °F 48.2 °F 63% 30.04 in 2.5 mi Calm Calm - N/A   Haze
9:00 PM 57.2 °F 50.0 °F 77% 30.04 in 2.5 mi Calm Calm - N/A   Haze
9:30 PM 57.2 °F 50.0 °F 77% 30.06 in 2.5 mi Calm Calm - N/A   Mist
10:00 PM 55.4 °F 50.0 °F 82% 30.06 in 2.5 mi Calm Calm - N/A   Mist
10:30 PM 53.6 °F 50.0 °F 88% 30.06 in 2.5 mi Calm Calm - N/A   Mist
11:00 PM 55.4 °F 50.0 °F 82% 30.06 in 2.5 mi Calm Calm - N/A   Mist
11:30 PM 54 °F 50 °F 82% 30.07 in 1 mi Calm Calm - -   Mist
11:30 PM 53.6 °F 50.0 °F 88% 30.06 in 1.9 mi Calm Calm - N/A   Mist